Other Public Products
Issued by NWS Charleston, SC

Current Version | Previous Version | Text Only | Print | Product List | Glossary On
Versions: 1 2 3 4 5 6 7 8 9 10 11 12 13 14 15 16 17 18 19 20 21 22 23 24 25 26 27 28 29 30 31 32 33 34 35 36 37 38 39 40 41 42 43 44 45 46 47 48 49 50
627 FPUS82 KCHS 202312 OPUCHS TEST...KCHS/KSAV Gateway Observations...TEST National Weather Service Charleston SC 700 PM EDT THU JUL 20 2017 NOTE: "fair" indicates few or no clouds below 12,000 feet with no significant weather and/or obstructions to visibility. SCZ050-WAZ558-NCZ071-TXZ119-213-PAZ071-DCZ001-FLZ074-172-MI076- NYZ176-178-MAZ016-IL014-TNZ027-NJZ106-GAZ044-MD014-210000- ...Gateway Observations for Charleston International... CITY SKY/WX TMP DP RH WIND PRES REMARKS Chas Airport MOSUNNY 85 74 69 SW12 30.00S HX 92 Seattle PTSUNNY 72 50 45 SW12 30.14F Charlotte MOSUNNY 94 68 42 N3 29.99F HX 98 Dallas DFW MOSUNNY 99 66 33 S7 29.96F HX 103 Dallas Love MOSUNNY 98 68 37 SE10 29.97F HX 103 Philladelphia MOSUNNY 94 69 44 SW13 29.87F HX 99 Wash National CLOUDY 95 67 39 SW10 29.90F HX 99 Baltimore PTSUNNY 93 68 43 W8 29.89F HX 97 Miami CLOUDY 88 74 63 CALM 30.05R HX 96 Detroit PTSUNNY 85 70 60 SW6 29.95R Newark CLOUDY 91 66 43 W12 29.86S HX 93 Laguardia CLOUDY 93 65 39 W17 29.85S HX 95 J F K CLOUDY 84 77 79 S7 29.87S HX 94 Boston Logan CLOUDY 88 65 46 W10 29.81S HX 90 Ft. Lauderdale CLOUDY 82 78 88 N5 30.04S HX 91 Chicago O`Hare CLOUDY 82 71 69 E8 29.95F Chicago Midway CLOUDY 83 72 69 E8 29.95S Houston Bush MOSUNNY 93 72 50 SE9 30.00F HX 101 Houston Hobby MOSUNNY 93 74 53 SE8 29.99F HX 103 Nashville CLOUDY 92 71 50 CALM 30.03F HX 98 Atlanta MOSUNNY 90 68 48 NW9 30.03S HX 94 $$ GAZ044-118-TXZ119-213-NCZ071-DCZ001-MDZ014-506-PAZ021-071-NJZ106- NYZ176-178-MAZ106-OHZ011-021-055-MIZ076-KYZ091-ILZ014-INZ047- MNZ060-ONZ431-210000- ...Gateway Observations for Savannah International... CITY SKY/WX TMP DP RH WIND PRES REMARKS Savannah Arpt PTSUNNY 79 72 79 S7 30.02F Atlanta MOSUNNY 90 68 48 NW9 30.03S HX 94 Charlotte MOSUNNY 94 68 42 N3 29.99F HX 98 Dallas DFW MOSUNNY 99 66 33 S7 29.96F HX 103 Houston Bush MOSUNNY 93 72 50 SE9 30.00F HX 101 Wash National CLOUDY 95 67 39 SW10 29.90F HX 99 Wash Dulles CLOUDY 91 68 46 SW6 29.91F HX 95 Baltimore PTSUNNY 93 68 43 W8 29.89F HX 97 Philadelphia MOSUNNY 94 69 44 SW13 29.87F HX 99 Newark CLOUDY 91 66 43 W12 29.86S HX 93 Laguardia CLOUDY 93 65 39 W17 29.85S HX 95 J F K CLOUDY 84 77 79 S7 29.87S HX 94 Boston CLOUDY 88 65 46 W10 29.81S HX 90 Pittsburg PTSUNNY 77 72 84 SW8 29.98F Akron PTSUNNY 84 66 54 NW8 29.99S Cleveland CLOUDY 87 66 49 NW7 29.98S Cincinnati PTSUNNY 88 75 65 W9 30.01F HX 97 Columbus CLOUDY 83 75 79 SW7 29.99F HX 90 Detroit PTSUNNY 85 70 60 SW6 29.95R Chicago O`Hare CLOUDY 82 71 69 E8 29.95F Minneapolis MOSUNNY 88 59 37 VRB5 29.99F Indianapolis PTSUNNY 87 75 67 SW14 29.97F HX 96 Toronto Canada MOSUNNY 77 64 65 SW6 29.89F $$

USA.gov is the U.S. government's official web portal to all federal, state and local government web resources and services.